{"data":{"norad_id":66749,"intl_designator":"2025-276CM","name":"PIAST-S1","alt_names":[],"object_type":"PAYLOAD","status":"ACTIVE","operator":null,"country":"POL","launch_date":"2025-11-28","launch_site_code":"AFWTR","launch_vehicle":null,"mission":null,"orbit_class":"UNKNOWN","rcs_meters":null,"size_class":null,"mass_kg":null,"dimensions":null,"purposes":[],"wikipedia_slug":null,"has_3d_model":false,"image_url":null,"decayed_at":null,"tle_current":{"epoch":"2026-09-20T22:50:39.286176Z","epoch_age_seconds":78532,"freshness":"FRESH","line1":"1 66749U 25276CM  26263.95184359  .00003597  00000+0  16476-3 0  9997","line2":"2 66749  97.4111 336.0824 0002581  31.2800 328.8589 15.21114646 44982","mean_motion":15.21114646,"eccentricity":0.0002581,"inclination_deg":97.4111,"raan_deg":336.0824,"arg_perigee_deg":31.28,"mean_anomaly_deg":328.8589,"bstar":0.00016476,"rev_number":4498,"period_min":94.667420617289,"perigee_km":500.70134471943,"apogee_km":504.2531177856,"semimajor_km":6880.6142312525,"source":"CELESTRAK","updated_at":"2026-09-21T09:00:16.179146Z"}}}